Regional Weather Roundup
Issued by NWS

Home | Current Version | Previous Version | Text Only | Print | Product List | Glossary Off
Versions: 1 2 3 4 5 6 7 8 9 10 11 12 13 14 15 16 17 18 19 20 21 22 23 24 25 26 27 28 29 30 31 32 33 34 35 36 37 38 39 40 41 42 43 44 45 46 47 48 49 50

322
ASUS43 KBIS 270010
RWRND

NORTH DAKOTA REGIONAL WEATHER ROUNDUP
NATIONAL WEATHER SERVICE BISMARCK ND
700 PM CDT WED APR 26 2017

NOTE: "FAIR" INDICATES FEW OR NO CLOUDS BELOW 12,000 FEET WITH NO
SIGNIFICANT WEATHER AND/OR OBSTRUCTIONS TO VISIBILITY.


NDZ001>003-009>011-017-270100-
NORTHWEST NORTH DAKOTA

CITY           SKY/WX    TMP DP  RH WIND       PRES   REMARKS
WILLISTON      FAIR      51  18  27 E8        29.77S
6HR MIN TEMP:  45; 6HR MAX TEMP:  53;

MINOT          FAIR      49  24  37 NE14      29.77S
MINOT AFB      SUNNY     48  24  38 NE13G22   29.77S
$$

NDZ018>021-031>035-040>046-270100-
SOUTHWEST NORTH DAKOTA

CITY           SKY/WX    TMP DP  RH WIND       PRES   REMARKS
BISMARCK       CLOUDY    44  29  55 E13       29.76S
6HR MIN TEMP:  41; 6HR MAX TEMP:  47;

DICKINSON      FAIR      45  20  36 NE15      29.72S
GARRISON         N/A     47  25  42 NE10      29.75S
6HR MIN TEMP:  39; 6HR MAX TEMP:  48;

HETTINGER ARPT SUNNY     48  23  37 N9        29.73S
$$

NDZ004>008-012>016-024-026-027-054-270100-
NORTHEAST NORTH DAKOTA

CITY           SKY/WX    TMP DP  RH WIND       PRES   REMARKS
GRAND FORKS    LGT SNOW  32  30  92 N15       29.77S VSB 1
GRND FRKS AFB  LGT SNOW  32  28  86 NE15      29.78S FOG
DEVILS LAKE    CLOUDY    36  26  67 NE17G23   29.79R
$$

NDZ022-023-025-028>030-036>039-047>053-270100-
SOUTHEAST NORTH DAKOTA

CITY           SKY/WX    TMP DP  RH WIND       PRES   REMARKS
FARGO          LGT SNOW  30  28  92 N21       29.72S FOG     WCI  17
6HR MIN TEMP:  29; 6HR MAX TEMP:  30; 6HR PCP:  0.05;

JAMESTOWN      CLOUDY    31  26  82 N13       29.76S
$$





USA.gov is the U.S. government's official web portal to all federal, state and local government web resources and services.